Regional Weather Roundup
Issued by NWS

Home | Current Version | Previous Version | Graphics & Text | Print | Product List | Glossary On
Versions: 1 2 3 4 5 6 7 8 9 10 11 12 13 14 15 16 17 18 19 20 21 22 23 24 25 26 27 28 29 30 31 32 33 34 35 36 37 38 39 40 41 42 43 44 45 46 47 48 49 50
000
ASUS43 KIND 310959
RWRIN

WEATHER ROUNDUP FOR INDIANA
NATIONAL WEATHER SERVICE INDIANAPOLIS IN
600 AM EDT MON AUG 31 2015

NOTE: "FAIR" INDICATES FEW OR NO CLOUDS BELOW 12,000 FEET WITH NO
SIGNIFICANT WEATHER AND/OR OBSTRUCTIONS TO VISIBILITY.

* - STATION DOES NOT REPORT WEATHER SUCH AS PRECIPITATION OR FOG.

+ - STATION NOT QUALITY CONTROLLED BY THE NATIONAL WEATHER SERVICE.
    USE DATA WITH CAUTION...ESPECIALLY DEWPOINT AND RELATIVE
    HUMIDITY OBSERVATIONS.

INZ001>003-010>013-019-020-311100-
NORTHWEST INDIANA

CITY           SKY/WX    TMP DP  RH WIND       PRES   REMARKS
GARY /AIRPORT/ CLOUDY    64  63  94 CALM      30.05S FOG
KNOX *+        CLOUDY    59  59 100 N3        30.03S VSB 1/4
MONTICELLO +   CLEAR     68  68 100 S6        30.04R

$$

LMZ046-743>745-311100-
SOUTHERN LAKE MICHIGAN

STATION/POSITION TIME  TEMP    WIND        PRES    WAVE
                       AIR SEA DIR/SP/G            HT
                 (UTC) (F)     (DEG/KT/KT) (MB)    (FT)
BURNS HARBOR     0900   68     160/  3/  6 1017.6R
MICHIGAN CITY    0900   67     120/  4/  5   N/A
5NW MICH CITY    0900   68 71  160/  2/  4   N/A     0

$$

INZ004-005-014>016-021>024-311100-
NORTH CENTRAL INDIANA

CITY           SKY/WX    TMP DP  RH WIND       PRES   REMARKS
GOSHEN         FOG       63  62  97 CALM      30.05S VSB 1/4
PERU/GRISSOM   CLEAR     66  64  94 SW2       30.05S
SOUTH BEND     MOCLDY    62  61  96 CALM      30.05F
WARSAW +       FOG       63  63 100 CALM      30.06R VSB<1/4

$$

INZ006>009-017-018-025>027-311100-
NORTHEAST INDIANA

CITY           SKY/WX    TMP DP  RH WIND       PRES   REMARKS
ANGOLA *+      CLOUDY    63  63 100 CALM      30.06S VSB 0
FORT WAYNE     PTCLDY    65  63  93 CALM      30.06S FOG

$$

INZ028-029-035-036-043>045-051>053-311100-
WEST CENTRAL INDIANA

CITY           SKY/WX    TMP DP  RH WIND       PRES   REMARKS
GREENCASTLE +  CLEAR     64  61  88 CALM      30.07S FOG
LAFAYETTE      FOG       65  64  97 CALM      30.05R VSB 3/4
TERRE HAUTE    FOG       63  63 100 CALM      30.05S VSB 1/4

$$

INZ030>032-037>040-046>048-054>057-064-065-311100-
CENTRAL INDIANA

CITY           SKY/WX    TMP DP  RH WIND       PRES   REMARKS
FRANKFORT +    PTCLDY   N/A N/A N/A CALM      30.08R FOG
INDIANAPOLIS   MOCLDY    68  65  90 S3        30.05S
-EAGLE CREEK   CLEAR     67  66  97 CALM      30.06S FOG
KOKOMO *+      CLEAR     63  61  94 CALM      30.06S
MT COMFORT *+  CLEAR     66 N/A N/A S3        30.08R
SHELBYVILLE    CLEAR     66  63  90 S3        30.07R

$$

INZ033-034-041-042-049-050-058-059-311100-
EAST CENTRAL INDIANA

CITY           SKY/WX    TMP DP  RH WIND       PRES   REMARKS
MUNCIE         CLEAR     67  66  97 SW6       30.07S

$$

INZ060-061-067>069-081>083-085>088-311100-
SOUTHWEST INDIANA

CITY           SKY/WX    TMP DP  RH WIND       PRES   REMARKS
EVANSVILLE     CLEAR     67  65  93 CALM      30.07R FOG
HUNTINGBURG *+ CLEAR     66  64  94 SE3       30.08R

$$

INZ062-063-066-070>080-084-089>092-311100-
SOUTH CENTRAL AND SOUTHEAST INDIANA

CITY           SKY/WX    TMP DP  RH WIND       PRES   REMARKS
BLOOMINGTON    CLEAR     65  64  97 CALM      30.08R FOG
MADISON *+       N/A     64  63  94 CALM      30.10S VSB 1/4

$$



USA.gov is the U.S. government's official web portal to all federal, state and local government web resources and services.